Weather History for Wolf Creek Pass, CO

Change the Weather History Date:

Monday, February 11, 2013

  Actual Average (KALS) Record (KALS)
Temperature  
Mean Temperature 2 °F 21 °F  
Max Temperature 5 °F 39 °F 64 °F (1951)
Min Temperature -2 °F 4 °F -24 °F (1939)
Degree Days  
Heating Degree Days 62 44  
Month to date heating degree days 498  
Since 1 July heating degree days 5645  
Cooling Degree Days 0 0  
Month to date cooling degree days 0  
Year to date cooling degree days 0  
Moisture  
Dew Point 0 °F    
Average Humidity 87    
Maximum Humidity 92    
Minimum Humidity 78    
Precipitation  
Precipitation 0.31 in 0.01 in 0.16 in (1948)
Month to date precipitation 0.10  
Year to date precipitation 0.36  
Snow  
Snow 0.00 in 0.20 in 3.70 in (1948)
Month to date snowfall 1.6  
Since 1 July snowfall 15.9  
Snow Depth -    
Sea Level Pressure  
Sea Level Pressure 29.78 in    
Wind  
Wind Speed 14 mph (SW)    
Max Wind Speed 24 mph    
Max Gust Speed 38 mph    
T = Trace of Precipitation, MM = Missing Value Source: NWS Daily Summary

Daily Weather History Graph

Daily Weather History Graph

Search for Another Location

Airport:

Trip Planner

Search our weather history database for the weather conditions in past years. The results will help you decide how hot, cold, wet, or windy it might be!

Date:

Astronomy

Feb. 11, 2013 Rise Set
Actual Time 7:00 AM MST 5:42 PM MST
Civil Twilight 6:33 AM MST 6:09 PM MST
Nautical Twilight 6:02 AM MST 6:40 PM MST
Astronomical Twilight 5:32 AM MST 7:10 PM MST
Moon 7:29 AM MST (2/11) 7:39 PM MST (2/11)
Length of Visible Light 11h 36m
Length of Day
10h 42m
Waxing Crescent, 3% of the Moon is Illuminated
Feb 11
Waxing Crescent
Feb 17
First Quarter
Feb 25
Full
Mar 4
Last Quarter
Mar 11
New

Hourly Weather History & Observations

Time (MST) Temp. Windchill Dew Point Humidity Pressure Visibility Wind Dir Wind Speed Gust Speed Precip Events Conditions
12:10 AM 3.2 °F -13.9 °F 1.4 °F 92% 29.76 in - SW 12.7 mph 26.5 mph 0.01 in   Overcast
12:31 AM 3.2 °F -14.6 °F 1.4 °F 92% 29.76 in - SW 13.8 mph 29.9 mph 0.02 in   Overcast
12:51 AM 3.2 °F -15.3 °F 1.4 °F 92% 29.76 in - SW 15.0 mph 31.1 mph 0.02 in   Overcast
1:08 AM 3.2 °F -15.3 °F 1.4 °F 92% 29.76 in - SW 15.0 mph 25.3 mph 0.01 in   Overcast
1:29 AM 3.2 °F -13.9 °F 1.4 °F 92% 29.76 in - SW 12.7 mph 27.6 mph 0.03 in   Overcast
1:50 AM 3.2 °F -13.9 °F 1.4 °F 92% 29.76 in - SSW 12.7 mph 17.3 mph 0.04 in   Overcast
2:11 AM 3.2 °F -15.3 °F 1.4 °F 92% 29.75 in - SSW 15.0 mph 26.5 mph 0.01 in   Overcast
2:30 AM 3.2 °F -12.2 °F 1.4 °F 92% 29.75 in - SSW 10.4 mph 28.8 mph 0.02 in   Overcast
2:50 AM 3.2 °F -13.9 °F 1.4 °F 92% 29.75 in - SSW 12.7 mph 24.2 mph 0.03 in   Overcast
3:11 AM 3.2 °F -13.9 °F 1.4 °F 92% 29.74 in - SSW 12.7 mph 25.3 mph 0.01 in   Overcast
3:30 AM 5.0 °F -10.8 °F 1.4 °F 85% 29.73 in - SSW 11.5 mph 24.2 mph 0.02 in   Overcast
3:48 AM 5.0 °F -15.2 °F 1.4 °F 85% 29.72 in - SSW 19.6 mph 32.2 mph 0.02 in   Overcast
4:10 AM 5.0 °F -16.2 °F 1.4 °F 85% 29.72 in - SW 21.9 mph 31.1 mph 0.01 in   Overcast
4:30 AM 5.0 °F -14.2 °F 1.4 °F 85% 29.72 in - SW 17.3 mph 31.1 mph 0.02 in   Overcast
4:51 AM 5.0 °F -14.7 °F 1.4 °F 85% 29.72 in - SW 18.4 mph 29.9 mph 0.05 in   Overcast
5:07 AM 5.0 °F -13.0 °F 1.4 °F 85% 29.72 in - SSW 15.0 mph 32.2 mph 0.01 in   Overcast
5:31 AM 5.0 °F -16.2 °F 1.4 °F 85% 29.72 in - SW 21.9 mph 35.7 mph 0.03 in   Overcast
5:51 AM 3.2 °F -18.6 °F 1.4 °F 92% 29.72 in - SSW 21.9 mph 34.5 mph 0.04 in   Overcast
6:04 AM 3.2 °F -16.5 °F 1.4 °F 92% 29.72 in - SW 17.3 mph 38.0 mph N/A   Overcast
6:31 AM 3.2 °F -17.6 °F 1.4 °F 92% 29.73 in - SW 19.6 mph 38.0 mph N/A   Overcast
6:50 AM 3.2 °F -16.5 °F 1.4 °F 92% 29.73 in - South 17.3 mph 31.1 mph 0.01 in   Overcast
7:11 AM 3.2 °F -16.5 °F 1.4 °F 92% 29.73 in - SSW 17.3 mph 31.1 mph 0.01 in   Overcast
7:30 AM 3.2 °F -17.1 °F -0.4 °F 85% 29.73 in - SW 18.4 mph 31.1 mph 0.01 in   Overcast
7:51 AM 3.2 °F -13.9 °F -0.4 °F 85% 29.74 in - SSW 12.7 mph 29.9 mph 0.01 in   Overcast
8:11 AM 3.2 °F -14.6 °F -0.4 °F 85% 29.75 in - SW 13.8 mph 26.5 mph 0.01 in   Overcast
8:31 AM 3.2 °F -18.1 °F -0.4 °F 85% 29.75 in - SW 20.7 mph 33.4 mph 0.02 in   Overcast
8:48 AM 3.2 °F -18.1 °F -0.4 °F 85% 29.75 in - SW 20.7 mph 34.5 mph 0.04 in   Overcast
9:08 AM 3.2 °F -17.6 °F -0.4 °F 85% 29.76 in - SSW 19.6 mph 32.2 mph N/A   Overcast
9:29 AM 3.2 °F -18.1 °F -0.4 °F 85% 29.76 in - SW 20.7 mph 36.8 mph N/A   Overcast
9:50 AM 3.2 °F -17.1 °F -0.4 °F 85% 29.77 in - SSW 18.4 mph 35.7 mph N/A   Overcast
10:11 AM 3.2 °F -19.5 °F -0.4 °F 85% 29.77 in - SW 24.2 mph 27.6 mph 0.01 in   Overcast
10:31 AM 3.2 °F -15.9 °F -0.4 °F 85% 29.78 in - SW 16.1 mph 29.9 mph 0.02 in   Overcast
10:51 AM 3.2 °F -16.5 °F -0.4 °F 85% 29.79 in - SW 17.3 mph 28.8 mph 0.03 in   Overcast
11:11 AM 3.2 °F -15.9 °F -0.4 °F 85% 29.79 in - SW 16.1 mph 26.5 mph 0.01 in   Overcast
11:31 AM 3.2 °F -17.1 °F -0.4 °F 85% 29.79 in - SW 18.4 mph 26.5 mph 0.01 in   Overcast
11:51 AM 3.2 °F -14.6 °F -0.4 °F 85% 29.79 in - SW 13.8 mph 25.3 mph 0.01 in   Overcast
12:11 PM 3.2 °F -13.1 °F 1.4 °F 92% 29.78 in - SW 11.5 mph 23.0 mph N/A   Overcast
12:31 PM 3.2 °F -16.5 °F 1.4 °F 92% 29.78 in - SW 17.3 mph 23.0 mph N/A   Overcast
12:51 PM 3.2 °F -19.0 °F 1.4 °F 92% 29.77 in - SSW 23.0 mph 32.2 mph N/A   Overcast
1:11 PM 5.0 °F -14.2 °F 1.4 °F 85% 29.77 in - SW 17.3 mph 26.5 mph 0.01 in   Overcast
1:31 PM 5.0 °F -13.6 °F 1.4 °F 85% 29.77 in - SW 16.1 mph 28.8 mph 0.01 in   Overcast
1:51 PM 3.2 °F -16.5 °F 1.4 °F 92% 29.76 in - SW 17.3 mph 26.5 mph 0.01 in   Overcast
2:11 PM 3.2 °F -13.1 °F 1.4 °F 92% 29.76 in - SSW 11.5 mph 24.2 mph N/A   Overcast
2:31 PM 3.2 °F -13.9 °F -0.4 °F 85% 29.76 in - SW 12.7 mph 27.6 mph N/A   Overcast
2:51 PM 3.2 °F -15.3 °F 1.4 °F 92% 29.77 in - SW 15.0 mph 26.5 mph N/A   Overcast
3:11 PM 3.2 °F -14.6 °F 1.4 °F 92% 29.77 in - SW 13.8 mph 23.0 mph N/A   Overcast
4:11 PM 3.2 °F -11.3 °F -0.4 °F 85% 29.78 in - SSW 9.2 mph 18.4 mph N/A   Overcast
4:31 PM 3.2 °F -12.2 °F 1.4 °F 92% 29.78 in - SSW 10.4 mph 19.6 mph N/A   Overcast
4:51 PM 3.2 °F -13.9 °F -0.4 °F 85% 29.79 in - SW 12.7 mph 17.3 mph N/A   Overcast
5:11 PM 3.2 °F -13.1 °F -0.4 °F 85% 29.79 in - SW 11.5 mph - N/A   Overcast
5:31 PM 3.2 °F -12.2 °F -0.4 °F 85% 29.80 in - SW 10.4 mph 23.0 mph N/A   Overcast
5:51 PM 3.2 °F -11.3 °F -0.4 °F 85% 29.80 in - SW 9.2 mph - N/A   Overcast
6:11 PM 3.2 °F -13.1 °F -0.4 °F 85% 29.81 in - SW 11.5 mph - N/A   Overcast
6:31 PM 3.2 °F -14.6 °F -0.4 °F 85% 29.82 in - SSW 13.8 mph - N/A   Overcast
6:51 PM 1.4 °F -16.9 °F -0.4 °F 92% 29.82 in - SW 13.8 mph - N/A   Overcast
7:11 PM 1.4 °F -16.1 °F -0.4 °F 92% 29.83 in - SW 12.7 mph - N/A   Overcast
7:31 PM 1.4 °F -14.5 °F -0.4 °F 92% 29.83 in - SW 10.4 mph - N/A   Overcast
7:51 PM 1.4 °F -15.3 °F -2.2 °F 85% 29.83 in - SW 11.5 mph - N/A   Unknown
8:11 PM -0.4 °F -17.6 °F -4.0 °F 85% 29.83 in - SW 11.5 mph - N/A   Unknown
8:31 PM -0.4 °F -8.3 °F -4.0 °F 85% 29.84 in - WSW 3.5 mph - N/A   Mostly Cloudy
8:51 PM -0.4 °F -15.7 °F -4.0 °F 85% 29.83 in - SW 9.2 mph - N/A   Mostly Cloudy
9:11 PM -0.4 °F -8.3 °F -5.8 °F 78% 29.84 in - WSW 3.5 mph - N/A   Unknown
9:31 PM -0.4 °F -12.0 °F -5.8 °F 78% 29.83 in - NNW 5.8 mph - N/A   Unknown
9:51 PM -0.4 °F -14.7 °F -4.0 °F 85% 29.83 in - North 8.1 mph - N/A   Unknown
10:11 PM -0.4 °F -15.7 °F -5.8 °F 78% 29.83 in - North 9.2 mph - N/A   Unknown
10:31 PM -0.4 °F -16.7 °F -5.8 °F 78% 29.83 in - North 10.4 mph - N/A   Unknown
10:51 PM -0.4 °F -16.7 °F -4.0 °F 85% 29.83 in - NE 10.4 mph - N/A   Unknown
11:11 PM -0.4 °F -15.7 °F -5.8 °F 78% 29.82 in - NNE 9.2 mph - N/A   Unknown
11:31 PM -0.4 °F -14.7 °F -5.8 °F 78% 29.82 in - NNE 8.1 mph - N/A   Unknown
11:51 PM -2.2 °F -18.0 °F -5.8 °F 85% 29.83 in - ENE 9.2 mph - N/A   Unknown